| time (UTC) | temp F | wind direction | speed knots | gust knots | rain 1hr in | rain 24hr in | rain mn in | humidity % | barometer mb |
| 20260506231511 | 45 | 323 | 0.0 | 0.0 | 0.00 | 0.43 | 0.43 | 92 | 1009.0 |
| 20260506231009 | 45 | 323 | 0.0 | 0.0 | 0.00 | 0.43 | 0.43 | 92 | 1009.3 |
| 20260506230504 | 45 | 324 | 0.0 | 0.0 | 0.00 | 0.43 | 0.43 | 92 | 1009.2 |
| 20260506230002 | 46 | 324 | 0.0 | 0.0 | 0.00 | 0.43 | 0.43 | 92 | 1009.2 |
| 20260506225459 | 46 | 324 | 0.0 | 0.0 | 0.00 | 0.43 | 0.43 | 92 | 1009.3 |
| 20260506224954 | 46 | 324 | 0.0 | 0.0 | 0.00 | 0.43 | 0.43 | 91 | 1009.0 |
| 20260506224452 | 46 | 324 | 0.0 | 0.0 | 0.00 | 0.43 | 0.43 | 91 | 1008.9 |
| 20260506223948 | 46 | 324 | 0.0 | 0.0 | 0.00 | 0.43 | 0.43 | 90 | 1009.0 |
| 20260506223444 | 46 | 324 | 0.0 | 0.0 | 0.00 | 0.43 | 0.43 | 89 | 1009.2 |
| 20260506222942 | 46 | 324 | 0.0 | 0.0 | 0.00 | 0.43 | 0.43 | 90 | 1009.3 |
| 20260506222438 | 47 | 342 | 0.0 | 0.0 | 0.00 | 0.43 | 0.43 | 91 | 1009.3 |
| 20260506221935 | 47 | 342 | 0.0 | 0.0 | 0.00 | 0.43 | 0.43 | 91 | 1009.2 |
| 20260506221432 | 47 | 342 | 0.0 | 0.0 | 0.00 | 0.43 | 0.43 | 90 | 1009.4 |
| 20260506220930 | 47 | 344 | 0.0 | 0.0 | 0.00 | 0.43 | 0.43 | 88 | 1009.2 |
| 20260506220425 | 47 | 344 | 0.0 | 0.0 | 0.00 | 0.43 | 0.43 | 88 | 1009.3 |
| 20260506215922 | 47 | 344 | 0.0 | 0.0 | 0.00 | 0.43 | 0.43 | 88 | 1009.2 |
| 20260506215418 | 47 | 344 | 0.0 | 0.0 | 0.00 | 0.43 | 0.43 | 86 | 1008.9 |
| 20260506214914 | 47 | 345 | 1.7 | 2.6 | 0.00 | 0.43 | 0.43 | 86 | 1009.0 |
| 20260506214411 | 47 | 344 | 0.0 | 0.0 | 0.00 | 0.43 | 0.43 | 86 | 1009.0 |
| 20260506213909 | 47 | 345 | 1.7 | 1.7 | 0.00 | 0.43 | 0.43 | 85 | 1008.9 |
| 20260506213406 | 47 | 354 | 0.9 | 1.7 | 0.00 | 0.43 | 0.43 | 85 | 1008.8 |
| 20260506212904 | 47 | 354 | 0.9 | 1.7 | 0.00 | 0.43 | 0.43 | 84 | 1008.8 |
| 20260506212359 | 47 | 355 | 0.9 | 0.9 | 0.00 | 0.43 | 0.43 | 85 | 1008.7 |
| 20260506211854 | 47 | 355 | 0.9 | 0.9 | 0.00 | 0.43 | 0.43 | 86 | 1008.6 |
| 20260506211350 | 47 | 335 | 0.0 | 0.0 | 0.00 | 0.43 | 0.43 | 88 | 1008.8 |
| 20260506210848 | 47 | 335 | 0.0 | 0.0 | 0.00 | 0.43 | 0.43 | 87 | 1009.0 |
| 20260506210344 | 47 | 341 | 1.7 | 1.7 | 0.00 | 0.43 | 0.43 | 86 | 1008.8 |
| 20260506205842 | 47 | 355 | 0.0 | 0.0 | 0.00 | 0.43 | 0.43 | 88 | 1008.8 |
| 20260506205337 | 47 | 355 | 0.9 | 0.9 | 0.00 | 0.43 | 0.43 | 86 | 1008.8 |
| 20260506204834 | 47 | 0 | 0.9 | 0.9 | 0.00 | 0.43 | 0.43 | 88 | 1008.8 |
| 20260506204332 | 47 | 2 | 0.0 | 0.0 | 0.00 | 0.43 | 0.43 | 87 | 1008.6 |
| 20260506203829 | 47 | 2 | 0.0 | 0.0 | 0.00 | 0.43 | 0.43 | 87 | 1008.8 |
| 20260506203326 | 47 | 4 | 0.9 | 0.9 | 0.00 | 0.43 | 0.43 | 86 | 1008.6 |
| 20260506202823 | 46 | 4 | 0.0 | 0.0 | 0.00 | 0.43 | 0.43 | 87 | 1008.8 |
| 20260506202320 | 46 | 351 | 0.9 | 0.9 | 0.00 | 0.43 | 0.43 | 87 | 1008.5 |
| 20260506201816 | 46 | 2 | 2.6 | 2.6 | 0.00 | 0.43 | 0.43 | 86 | 1008.5 |
| 20260506201314 | 46 | 334 | 0.0 | 0.0 | 0.00 | 0.43 | 0.43 | 90 | 1009.0 |
| 20260506200811 | 46 | 350 | 2.6 | 2.6 | 0.00 | 0.43 | 0.43 | 88 | 1008.8 |
| 20260506200307 | 46 | 11 | 0.0 | 0.9 | 0.00 | 0.43 | 0.43 | 88 | 1008.4 |
| 20260506195803 | 46 | 356 | 0.9 | 1.7 | 0.00 | 0.43 | 0.43 | 88 | 1008.5 |
| 20260506195300 | 46 | 41 | 0.9 | 0.9 | 0.00 | 0.43 | 0.43 | 89 | 1008.6 |
| 20260506194757 | 46 | 353 | 0.9 | 0.9 | 0.00 | 0.43 | 0.43 | 90 | 1008.7 |
| 20260506194254 | 45 | 350 | 1.7 | 2.6 | 0.00 | 0.43 | 0.43 | 91 | 1008.8 |
| 20260506193752 | 45 | 353 | 2.6 | 3.5 | 0.00 | 0.43 | 0.43 | 91 | 1009.0 |
| 20260506193248 | 45 | 350 | 1.7 | 3.5 | 0.00 | 0.43 | 0.43 | 91 | 1008.9 |
| 20260506192744 | 45 | 359 | 1.7 | 1.7 | 0.00 | 0.43 | 0.43 | 90 | 1009.1 |
| 20260506192241 | 45 | 342 | 1.7 | 1.7 | 0.00 | 0.43 | 0.43 | 91 | 1009.1 |
| 20260506191738 | 45 | 2 | 3.5 | 3.5 | 0.00 | 0.43 | 0.43 | 91 | 1008.9 |
| 20260506191234 | 45 | 347 | 1.7 | 1.7 | 0.00 | 0.43 | 0.43 | 91 | 1008.8 |
| 20260506190732 | 45 | 352 | 2.6 | 2.6 | 0.00 | 0.43 | 0.43 | 91 | 1008.8 |
| 20260506190228 | 45 | 32 | 0.9 | 1.7 | 0.00 | 0.43 | 0.43 | 93 | 1008.7 |
| 20260506185725 | 44 | 345 | 3.5 | 3.5 | 0.00 | 0.43 | 0.43 | 93 | 1008.9 |
| 20260506185221 | 45 | 6 | 3.5 | 3.5 | 0.00 | 0.43 | 0.43 | 94 | 1008.9 |
| 20260506184719 | 44 | 358 | 1.7 | 2.6 | 0.00 | 0.43 | 0.43 | 93 | 1008.8 |
| 20260506184216 | 44 | 9 | 4.3 | 5.2 | 0.00 | 0.43 | 0.43 | 94 | 1009.0 |
| 20260506183713 | 44 | 352 | 2.6 | 2.6 | 0.00 | 0.43 | 0.43 | 94 | 1008.8 |
| 20260506183209 | 44 | 358 | 3.5 | 3.5 | 0.00 | 0.43 | 0.43 | 94 | 1008.9 |
| 20260506182706 | 44 | 15 | 0.9 | 0.9 | 0.00 | 0.43 | 0.43 | 95 | 1008.9 |
| 20260506182203 | 44 | 6 | 1.7 | 2.6 | 0.00 | 0.43 | 0.43 | 94 | 1009.0 |
| 20260506181701 | 44 | 2 | 1.7 | 1.7 | 0.00 | 0.43 | 0.43 | 94 | 1008.8 |
| 20260506181158 | 44 | 17 | 3.5 | 3.5 | 0.00 | 0.43 | 0.43 | 95 | 1009.0 |
| 20260506180655 | 44 | 325 | 3.5 | 3.5 | 0.00 | 0.43 | 0.43 | 96 | 1009.1 |
| 20260506180151 | 44 | 350 | 0.0 | 0.0 | 0.00 | 0.43 | 0.43 | 95 | 1008.9 |
| 20260506175648 | 44 | 82 | 1.7 | 2.6 | 0.00 | 0.43 | 0.43 | 94 | 1008.7 |
| 20260506175145 | 44 | 19 | 1.7 | 1.7 | 0.00 | 0.43 | 0.43 | 95 | 1008.8 |
| 20260506174643 | 44 | 29 | 1.7 | 1.7 | 0.00 | 0.43 | 0.43 | 96 | 1008.8 |
| 20260506174139 | 44 | 25 | 0.9 | 1.7 | 0.00 | 0.43 | 0.43 | 96 | 1008.8 |
| 20260506173638 | 44 | 13 | 0.9 | 0.9 | 0.00 | 0.43 | 0.43 | 96 | 1008.8 |
| 20260506173134 | 44 | 8 | 2.6 | 3.5 | 0.00 | 0.43 | 0.43 | 96 | 1008.7 |
| 20260506172631 | 44 | 0 | 1.7 | 1.7 | 0.00 | 0.43 | 0.43 | 96 | 1008.9 |
| 20260506172127 | 44 | 31 | 3.5 | 3.5 | 0.00 | 0.43 | 0.43 | 96 | 1008.9 |
| 20260506171625 | 44 | 37 | 0.0 | 0.0 | 0.00 | 0.43 | 0.43 | 97 | 1009.0 |
| 20260506171123 | 44 | 359 | 2.6 | 3.5 | 0.00 | 0.43 | 0.43 | 97 | 1009.1 |
| 20260506170620 | 44 | 354 | 2.6 | 2.6 | 0.00 | 0.43 | 0.43 | 96 | 1009.1 |
| 20260506170117 | 44 | 11 | 2.6 | 5.2 | 0.00 | 0.43 | 0.43 | 96 | 1009.0 |
| 20260506165615 | 44 | 17 | 3.5 | 3.5 | 0.00 | 0.43 | 0.43 | 96 | 1009.0 |
| 20260506165111 | 43 | 3 | 1.7 | 1.7 | 0.00 | 0.43 | 0.43 | 96 | 1009.0 |
| 20260506164608 | 43 | 1 | 3.5 | 6.1 | 0.00 | 0.43 | 0.43 | 97 | 1009.1 |
| 20260506164106 | 43 | 9 | 5.2 | 7.0 | 0.00 | 0.43 | 0.43 | 97 | 1009.2 |
| 20260506163601 | 43 | 8 | 1.7 | 5.2 | 0.00 | 0.43 | 0.43 | 97 | 1009.3 |
| 20260506163057 | 43 | 359 | 3.5 | 5.2 | 0.07 | 0.43 | 0.43 | 97 | 1009.2 |
| 20260506162554 | 43 | 10 | 1.7 | 2.6 | 0.07 | 0.43 | 0.43 | 97 | 1009.5 |
| 20260506162051 | 43 | 0 | 5.2 | 7.0 | 0.00 | 0.42 | 0.42 | 98 | 1009.2 |
| 20260506161549 | 43 | 12 | 4.3 | 5.2 | 0.00 | 0.42 | 0.42 | 98 | 1009.2 |
| 20260506161045 | 43 | 352 | 3.5 | 3.5 | 0.05 | 0.42 | 0.42 | 98 | 1009.0 |
| 20260506160543 | 43 | 1 | 5.2 | 6.1 | 0.05 | 0.42 | 0.42 | 98 | 1009.1 |
| 20260506160039 | 43 | 349 | 2.6 | 3.5 | 0.00 | 0.41 | 0.41 | 98 | 1008.9 |
| 20260506155538 | 43 | 10 | 3.5 | 5.2 | 0.00 | 0.41 | 0.41 | 98 | 1008.8 |
| 20260506153709 | 43 | 359 | 2.6 | 2.6 | 0.00 | 0.41 | 0.41 | 98 | 1008.7 |
| 20260506153207 | 43 | 336 | 1.7 | 2.6 | 0.00 | 0.41 | 0.41 | 98 | 1008.8 |
| 20260506152704 | 43 | 7 | 0.9 | 0.9 | 0.00 | 0.41 | 0.41 | 98 | 1008.8 |
| 20260506152201 | 43 | 358 | 1.7 | 1.7 | 0.07 | 0.41 | 0.41 | 98 | 1008.7 |
| 20260506151700 | 43 | 3 | 3.5 | 3.5 | 0.07 | 0.41 | 0.41 | 98 | 1008.7 |
| 20260506151156 | 42 | 69 | 0.9 | 1.7 | 0.00 | 0.39 | 0.39 | 98 | 1008.8 |
| 20260506150653 | 42 | 347 | 2.6 | 2.6 | 0.00 | 0.39 | 0.39 | 99 | 1008.6 |
| 20260506150150 | 42 | 17 | 4.3 | 7.0 | 0.00 | 0.39 | 0.39 | 99 | 1008.7 |
| 20260506145646 | 42 | 35 | 3.5 | 6.1 | 0.00 | 0.39 | 0.39 | 99 | 1008.6 |
| 20260506145143 | 42 | 353 | 1.7 | 3.5 | 0.00 | 0.39 | 0.39 | 99 | 1008.7 |
| 20260506144641 | 42 | 349 | 3.5 | 3.5 | 0.05 | 0.39 | 0.39 | 99 | 1008.7 |
| 20260506144137 | 42 | 4 | 2.6 | 2.6 | 0.05 | 0.39 | 0.39 | 99 | 1008.8 |
| 20260506143635 | 42 | 354 | 1.7 | 1.7 | 0.00 | 0.39 | 0.39 | 99 | 1008.7 |
| 20260506143133 | 42 | 357 | 2.6 | 2.6 | 0.00 | 0.39 | 0.39 | 99 | 1008.8 |
| 20260506142631 | 42 | 6 | 3.5 | 3.5 | 0.07 | 0.39 | 0.39 | 99 | 1008.6 |
| 20260506142129 | 42 | 355 | 0.9 | 0.9 | 0.07 | 0.39 | 0.39 | 99 | 1008.7 |
| 20260506141626 | 42 | 356 | 0.0 | 0.9 | 0.00 | 0.37 | 0.37 | 99 | 1008.8 |
| 20260506141125 | 42 | 351 | 1.7 | 2.6 | 0.00 | 0.37 | 0.37 | 99 | 1009.0 |
| 20260506140622 | 42 | 346 | 1.7 | 1.7 | 0.05 | 0.37 | 0.37 | 99 | 1008.5 |
| 20260506140119 | 42 | 8 | 0.0 | 0.9 | 0.05 | 0.37 | 0.37 | 99 | 1008.7 |
| 20260506135615 | 42 | 352 | 2.6 | 2.6 | 0.00 | 0.37 | 0.37 | 99 | 1008.9 |
| 20260506135112 | 42 | 5 | 1.7 | 2.6 | 0.05 | 0.37 | 0.37 | 99 | 1008.8 |
| 20260506134608 | 42 | 353 | 0.9 | 0.9 | 0.05 | 0.37 | 0.37 | 99 | 1008.8 |
| 20260506134104 | 42 | 338 | 1.7 | 1.7 | 0.07 | 0.36 | 0.36 | 99 | 1008.7 |
| 20260506133602 | 42 | 336 | 0.9 | 0.9 | 0.07 | 0.36 | 0.36 | 99 | 1008.8 |
| 20260506133059 | 42 | 336 | 1.7 | 1.7 | 0.00 | 0.35 | 0.35 | 99 | 1008.5 |
| 20260506132556 | 42 | 353 | 0.9 | 0.9 | 0.05 | 0.35 | 0.35 | 99 | 1008.4 |
| 20260506132053 | 42 | 57 | 0.9 | 1.7 | 0.05 | 0.35 | 0.35 | 99 | 1008.6 |
| 20260506131550 | 42 | 350 | 1.7 | 2.6 | 0.05 | 0.34 | 0.34 | 99 | 1008.4 |
| 20260506131046 | 42 | 77 | 0.9 | 1.7 | 0.05 | 0.34 | 0.34 | 99 | 1008.5 |
| 20260506130543 | 42 | 61 | 1.7 | 1.7 | 0.05 | 0.34 | 0.34 | 99 | 1008.8 |
| 20260506130041 | 42 | 351 | 0.0 | 0.9 | 0.07 | 0.33 | 0.33 | 99 | 1008.8 |
| 20260506125539 | 42 | 355 | 0.0 | 0.0 | 0.07 | 0.33 | 0.33 | 99 | 1008.7 |
| 20260506125037 | 42 | 355 | 0.9 | 0.9 | 0.00 | 0.32 | 0.32 | 99 | 1008.7 |
| 20260506124534 | 42 | 48 | 2.6 | 2.6 | 0.05 | 0.32 | 0.32 | 99 | 1008.7 |
| 20260506124032 | 42 | 342 | 2.6 | 3.5 | 0.05 | 0.32 | 0.32 | 99 | 1008.5 |
| 20260506123529 | 42 | 69 | 1.7 | 1.7 | 0.07 | 0.31 | 0.31 | 99 | 1008.8 |
| 20260506123027 | 42 | 11 | 3.5 | 5.2 | 0.07 | 0.31 | 0.31 | 99 | 1008.8 |
| 20260506122524 | 42 | 24 | 0.9 | 0.9 | 0.07 | 0.31 | 0.31 | 99 | 1008.8 |
| 20260506122022 | 42 | 333 | 1.7 | 1.7 | 0.00 | 0.30 | 0.30 | 99 | 1009.0 |
| 20260506121519 | 42 | 319 | 0.9 | 0.9 | 0.05 | 0.30 | 0.30 | 99 | 1008.8 |
| 20260506121015 | 42 | 319 | 1.7 | 1.7 | 0.05 | 0.30 | 0.30 | 99 | 1008.8 |
| 20260506120514 | 42 | 293 | 0.9 | 0.9 | 0.00 | 0.29 | 0.29 | 99 | 1008.8 |
| 20260506120011 | 42 | 243 | 0.9 | 0.9 | 0.05 | 0.29 | 0.29 | 99 | 1008.9 |
| 20260506115508 | 42 | 243 | 0.0 | 0.0 | 0.05 | 0.29 | 0.29 | 99 | 1008.8 |
| 20260506115007 | 42 | 242 | 0.9 | 0.9 | 0.00 | 0.28 | 0.28 | 99 | 1009.1 |
| 20260506114504 | 42 | 241 | 0.0 | 0.0 | 0.07 | 0.28 | 0.28 | 99 | 1009.2 |
| 20260506114002 | 42 | 241 | 0.0 | 0.9 | 0.07 | 0.28 | 0.28 | 99 | 1009.3 |
| 20260506113459 | 42 | 241 | 0.0 | 0.0 | 0.00 | 0.27 | 0.27 | 99 | 1009.3 |
| 20260506112956 | 42 | 241 | 0.0 | 0.0 | 0.00 | 0.27 | 0.27 | 99 | 1009.3 |
| 20260506112453 | 42 | 241 | 0.0 | 0.0 | 0.00 | 0.27 | 0.27 | 99 | 1009.2 |
| 20260506111950 | 42 | 241 | 0.0 | 0.0 | 0.05 | 0.27 | 0.27 | 99 | 1008.9 |
| 20260506111449 | 42 | 241 | 0.0 | 0.0 | 0.05 | 0.27 | 0.27 | 99 | 1008.9 |
| 20260506110945 | 42 | 241 | 0.0 | 0.9 | 0.00 | 0.26 | 0.26 | 99 | 1009.1 |
| 20260506110443 | 42 | 241 | 0.0 | 0.9 | 0.07 | 0.26 | 0.26 | 99 | 1009.0 |
| 20260506105939 | 42 | 241 | 0.0 | 0.0 | 0.07 | 0.26 | 0.26 | 99 | 1009.3 |
| 20260506105436 | 42 | 241 | 0.0 | 0.0 | 0.05 | 0.25 | 0.25 | 99 | 1009.4 |
| 20260506104933 | 42 | 242 | 0.0 | 0.0 | 0.09 | 0.25 | 0.25 | 99 | 1009.2 |
| 20260506104431 | 42 | 242 | 0.0 | 0.0 | 0.05 | 0.24 | 0.24 | 99 | 1009.2 |
| 20260506103930 | 42 | 242 | 0.0 | 0.0 | 0.12 | 0.24 | 0.24 | 99 | 1009.0 |
| 20260506103427 | 43 | 242 | 0.0 | 0.0 | 0.12 | 0.24 | 0.24 | 99 | 1009.1 |
| 20260506102923 | 43 | 242 | 0.0 | 0.0 | 0.09 | 0.22 | 0.22 | 99 | 1009.2 |
| 20260506102421 | 43 | 242 | 0.0 | 0.0 | 0.12 | 0.22 | 0.22 | 99 | 1009.2 |
| 20260506101918 | 43 | 242 | 0.0 | 0.0 | 0.12 | 0.21 | 0.21 | 99 | 1009.3 |
| 20260506101414 | 43 | 242 | 0.0 | 0.0 | 0.05 | 0.20 | 0.20 | 99 | 1009.0 |
| 20260506100912 | 43 | 242 | 0.0 | 0.0 | 0.07 | 0.19 | 0.19 | 99 | 1009.1 |
| 20260506100410 | 43 | 241 | 0.0 | 0.0 | 0.12 | 0.19 | 0.19 | 99 | 1008.7 |
| 20260506095908 | 43 | 240 | 0.0 | 0.0 | 0.09 | 0.18 | 0.18 | 99 | 1008.9 |
| 20260506095406 | 43 | 240 | 0.0 | 0.0 | 0.05 | 0.17 | 0.17 | 99 | 1008.8 |
| 20260506094902 | 43 | 240 | 0.0 | 0.0 | 0.07 | 0.16 | 0.16 | 99 | 1008.6 |
| 20260506094401 | 43 | 240 | 0.0 | 0.0 | 0.12 | 0.16 | 0.16 | 99 | 1008.3 |
| 20260506093858 | 43 | 240 | 0.0 | 0.0 | 0.12 | 0.15 | 0.15 | 99 | 1008.4 |
| 20260506093356 | 43 | 240 | 0.0 | 0.0 | 0.07 | 0.14 | 0.14 | 99 | 1008.5 |
| 20260506092853 | 43 | 240 | 0.0 | 0.0 | 0.05 | 0.13 | 0.13 | 99 | 1008.5 |
| 20260506092351 | 43 | 240 | 0.0 | 0.0 | 0.09 | 0.13 | 0.13 | 99 | 1008.5 |
| 20260506091847 | 43 | 240 | 0.0 | 0.0 | 0.05 | 0.12 | 0.12 | 99 | 1008.4 |
| 20260506091345 | 43 | 240 | 0.0 | 0.0 | 0.07 | 0.11 | 0.11 | 99 | 1008.7 |
| 20260506090842 | 43 | 240 | 0.0 | 0.0 | 0.07 | 0.11 | 0.11 | 99 | 1009.0 |
| 20260506090340 | 43 | 240 | 0.0 | 0.0 | 0.00 | 0.10 | 0.10 | 99 | 1009.3 |
| 20260506085836 | 43 | 240 | 0.0 | 0.0 | 0.05 | 0.10 | 0.10 | 99 | 1009.0 |
| 20260506085332 | 43 | 240 | 0.0 | 0.0 | 0.05 | 0.10 | 0.10 | 99 | 1009.2 |
| 20260506084829 | 43 | 240 | 0.0 | 0.0 | 0.00 | 0.09 | 0.09 | 99 | 1009.1 |
| 20260506084326 | 43 | 240 | 0.0 | 0.0 | 0.00 | 0.09 | 0.09 | 99 | 1009.1 |
| 20260506083823 | 43 | 239 | 0.0 | 0.0 | 0.00 | 0.09 | 0.09 | 99 | 1009.1 |
| 20260506083320 | 43 | 238 | 0.0 | 0.0 | 0.00 | 0.09 | 0.09 | 99 | 1009.0 |
| 20260506082818 | 43 | 238 | 0.0 | 0.0 | 0.00 | 0.09 | 0.09 | 99 | 1009.1 |
| 20260506082314 | 43 | 237 | 0.0 | 0.0 | 0.00 | 0.09 | 0.09 | 99 | 1009.0 |
| 20260506081810 | 43 | 237 | 0.0 | 0.0 | 0.00 | 0.09 | 0.09 | 99 | 1009.2 |
| 20260506081308 | 43 | 232 | 0.0 | 0.0 | 0.00 | 0.09 | 0.09 | 99 | 1008.8 |
| 20260506080806 | 43 | 208 | 0.0 | 0.9 | 0.00 | 0.09 | 0.09 | 99 | 1009.0 |
| 20260506080302 | 43 | 229 | 0.9 | 0.9 | 0.00 | 0.09 | 0.09 | 99 | 1008.8 |
| 20260506073246 | 43 | 255 | 0.0 | 0.0 | 0.00 | 0.09 | 0.09 | 99 | 1009.0 |
| 20260506072743 | 43 | 255 | 0.0 | 0.0 | 0.00 | 0.09 | 0.09 | 99 | 1009.0 |
| 20260506072241 | 43 | 255 | 0.0 | 0.0 | 0.00 | 0.09 | 0.09 | 99 | 1008.9 |
| 20260506071738 | 43 | 255 | 0.0 | 0.0 | 0.07 | 0.09 | 0.09 | 99 | 1008.8 |
| 20260506071236 | 43 | 255 | 0.0 | 0.0 | 0.07 | 0.09 | 0.09 | 99 | 1008.7 |
| 20260506070732 | 43 | 255 | 0.0 | 0.0 | 0.00 | 0.08 | 0.08 | 99 | 1008.9 |
| 20260506070229 | 44 | 255 | 0.0 | 0.0 | 0.00 | 0.08 | 0.08 | 99 | 1009.2 |
| 20260506062206 | 44 | 255 | 0.0 | 0.0 | 0.00 | 0.07 | 0.07 | 99 | 1009.1 |
| 20260506061702 | 44 | 255 | 0.0 | 0.0 | 0.07 | 0.07 | 0.07 | 99 | 1009.6 |
| 20260506061200 | 44 | 255 | 1.7 | 1.7 | 0.07 | 0.07 | 0.07 | 99 | 1009.4 |
| 20260506060659 | 44 | 255 | 0.9 | 0.9 | 0.00 | 0.06 | 0.06 | 99 | 1009.8 |
| 20260506060155 | 44 | 255 | 0.9 | 0.9 | 0.00 | 0.06 | 0.06 | 99 | 1009.4 |
| 20260506051127 | 44 | 248 | 1.7 | 1.7 | 0.07 | 0.04 | 0.04 | 99 | 1009.5 |
| 20260506050625 | 44 | 247 | 0.9 | 1.7 | 0.00 | 0.03 | 0.03 | 99 | 1009.4 |
| 20260506050122 | 44 | 251 | 1.7 | 1.7 | 0.00 | 0.03 | 0.03 | 99 | 1009.2 |
| 20260506045115 | 44 | 248 | 1.7 | 1.7 | 0.00 | 0.03 | 0.03 | 99 | 1009.6 |
| 20260506044613 | 44 | 257 | 1.7 | 1.7 | 0.00 | 0.03 | 0.03 | 99 | 1009.6 |
| 20260506044110 | 45 | 258 | 0.9 | 1.7 | 0.00 | 0.03 | 0.03 | 99 | 1009.4 |
| 20260506043607 | 45 | 258 | 1.7 | 2.6 | 0.00 | 0.03 | 0.03 | 99 | 1009.4 |
| 20260506043105 | 45 | 258 | 0.0 | 0.0 | 0.05 | 0.03 | 0.03 | 99 | 1009.3 |
| 20260506042604 | 45 | 258 | 0.9 | 1.7 | 0.05 | 0.03 | 0.03 | 99 | 1009.5 |
| 20260506042102 | 45 | 258 | 1.7 | 1.7 | 0.00 | 0.02 | 0.02 | 99 | 1009.3 |
| 20260506041600 | 45 | 259 | 0.0 | 0.0 | 0.07 | 0.02 | 0.02 | 99 | 1009.5 |
| 20260506041056 | 45 | 258 | 1.7 | 1.7 | 0.12 | 0.02 | 0.02 | 99 | 1009.5 |
| 20260506040554 | 45 | 252 | 0.0 | 0.0 | 0.05 | 0.01 | 0.01 | 99 | 1009.5 |
| 20260506040050 | 45 | 252 | 1.7 | 1.7 | 0.05 | 0.01 | 0.01 | 99 | 1009.6 |
| 20260506035547 | 45 | 258 | 1.7 | 1.7 | 0.00 | 0.39 | 0.39 | 99 | 1009.8 |
| 20260506035044 | 45 | 251 | 1.7 | 1.7 | 0.05 | 0.39 | 0.39 | 99 | 1009.7 |
| 20260506034542 | 45 | 259 | 2.6 | 2.6 | 0.05 | 0.39 | 0.39 | 99 | 1009.6 |
| 20260506034038 | 45 | 257 | 1.7 | 2.6 | 0.00 | 0.38 | 0.38 | 99 | 1009.7 |
| 20260506033536 | 45 | 260 | 1.7 | 1.7 | 0.07 | 0.38 | 0.38 | 99 | 1009.8 |
| 20260506033032 | 46 | 248 | 2.6 | 2.6 | 0.07 | 0.38 | 0.38 | 99 | 1009.7 |
| 20260506032530 | 46 | 249 | 2.6 | 2.6 | 0.05 | 0.37 | 0.37 | 99 | 1009.7 |
| 20260506032026 | 46 | 256 | 1.7 | 2.6 | 0.05 | 0.37 | 0.37 | 99 | 1009.5 |
| 20260506031524 | 46 | 257 | 1.7 | 2.6 | 0.07 | 0.36 | 0.36 | 99 | 1009.4 |
| 20260506031021 | 46 | 250 | 0.9 | 1.7 | 0.07 | 0.36 | 0.36 | 99 | 1009.3 |
| 20260506030519 | 46 | 251 | 1.7 | 1.7 | 0.05 | 0.35 | 0.35 | 99 | 1009.2 |
| 20260506030016 | 46 | 251 | 0.9 | 1.7 | 0.05 | 0.35 | 0.35 | 99 | 1009.1 |
| 20260506025513 | 46 | 251 | 0.9 | 0.9 | 0.00 | 0.34 | 0.34 | 99 | 1009.2 |
| 20260506025009 | 46 | 251 | 0.9 | 1.7 | 0.00 | 0.34 | 0.34 | 99 | 1009.1 |
| 20260506024507 | 46 | 251 | 1.7 | 1.7 | 0.05 | 0.34 | 0.34 | 99 | 1009.2 |
| 20260506024002 | 46 | 252 | 0.9 | 1.7 | 0.05 | 0.34 | 0.34 | 99 | 1009.1 |
| 20260506023459 | 46 | 252 | 1.7 | 1.7 | 0.07 | 0.33 | 0.33 | 99 | 1009.0 |
| 20260506022955 | 46 | 252 | 0.9 | 1.7 | 0.07 | 0.33 | 0.33 | 99 | 1008.8 |
| 20260506022453 | 46 | 252 | 0.9 | 0.9 | 0.05 | 0.32 | 0.32 | 99 | 1008.9 |
| 20260506021951 | 46 | 252 | 0.0 | 0.0 | 0.09 | 0.32 | 0.32 | 99 | 1008.9 |
| 20260506021448 | 46 | 252 | 0.9 | 0.9 | 0.05 | 0.31 | 0.31 | 99 | 1009.2 |
| 20260506020945 | 46 | 252 | 1.7 | 1.7 | 0.07 | 0.30 | 0.30 | 99 | 1008.9 |
| 20260506020443 | 46 | 252 | 1.7 | 2.6 | 0.07 | 0.30 | 0.30 | 99 | 1009.0 |
| 20260506015940 | 47 | 252 | 2.6 | 2.6 | 0.05 | 0.29 | 0.29 | 99 | 1008.9 |
| 20260506015437 | 47 | 253 | 1.7 | 1.7 | 0.12 | 0.29 | 0.29 | 99 | 1008.8 |
| 20260506014934 | 47 | 253 | 1.7 | 1.7 | 0.12 | 0.28 | 0.28 | 99 | 1008.7 |
| 20260506014431 | 47 | 243 | 1.7 | 1.7 | 0.09 | 0.27 | 0.27 | 99 | 1008.8 |
| 20260506013927 | 47 | 254 | 0.0 | 0.9 | 0.12 | 0.26 | 0.26 | 99 | 1008.7 |
| 20260506013426 | 47 | 253 | 0.0 | 0.9 | 0.12 | 0.26 | 0.26 | 99 | 1008.8 |
| 20260506012921 | 47 | 249 | 1.7 | 2.6 | 0.12 | 0.24 | 0.24 | 99 | 1008.7 |
| 20260506012418 | 47 | 259 | 0.9 | 1.7 | 0.12 | 0.24 | 0.24 | 99 | 1008.6 |
| 20260506011915 | 47 | 257 | 1.7 | 1.7 | 0.05 | 0.22 | 0.22 | 99 | 1008.8 |
| 20260506011412 | 48 | 259 | 1.7 | 2.6 | 0.05 | 0.22 | 0.22 | 99 | 1008.6 |
| 20260506010909 | 47 | 253 | 1.7 | 1.7 | 0.12 | 0.22 | 0.22 | 99 | 1008.7 |
| 20260506010408 | 48 | 254 | 0.9 | 1.7 | 0.12 | 0.21 | 0.21 | 98 | 1008.6 |
| 20260506005904 | 48 | 257 | 1.7 | 1.7 | 0.12 | 0.20 | 0.20 | 98 | 1008.6 |
| 20260506005402 | 48 | 249 | 1.7 | 1.7 | 0.12 | 0.19 | 0.19 | 98 | 1008.3 |
| 20260506004857 | 48 | 249 | 1.7 | 1.7 | 0.09 | 0.18 | 0.18 | 98 | 1008.8 |
| 20260506004355 | 48 | 257 | 1.7 | 1.7 | 0.12 | 0.17 | 0.17 | 98 | 1008.6 |
| 20260506003851 | 48 | 258 | 1.7 | 1.7 | 0.12 | 0.17 | 0.17 | 98 | 1008.7 |
| 20260506003347 | 48 | 258 | 0.9 | 1.7 | 0.05 | 0.15 | 0.15 | 98 | 1008.4 |
| 20260506002843 | 48 | 257 | 0.9 | 1.7 | 0.09 | 0.15 | 0.15 | 97 | 1008.6 |
| 20260506002340 | 48 | 258 | 0.0 | 0.0 | 0.12 | 0.14 | 0.14 | 97 | 1008.2 |
| 20260506001836 | 49 | 258 | 1.7 | 1.7 | 0.12 | 0.13 | 0.13 | 96 | 1008.1 |
| 20260506001333 | 49 | 258 | 1.7 | 1.7 | 0.12 | 0.12 | 0.12 | 95 | 1008.0 |
| 20260506000830 | 49 | 257 | 0.0 | 0.0 | 0.07 | 0.11 | 0.11 | 94 | 1008.0 |
| 20260506000329 | 50 | 253 | 0.9 | 1.7 | 0.05 | 0.10 | 0.10 | 93 | 1007.9 |
| 20260505235824 | 50 | 279 | 1.7 | 1.7 | 0.09 | 0.10 | 0.10 | 91 | 1007.7 |
| 20260505235322 | 51 | 271 | 0.9 | 0.9 | 0.05 | 0.09 | 0.09 | 88 | 1008.1 |
| 20260505234818 | 52 | 276 | 1.7 | 1.7 | 0.07 | 0.09 | 0.09 | 84 | 1007.7 |
| 20260505234317 | 53 | 276 | 0.0 | 0.0 | 0.07 | 0.09 | 0.09 | 83 | 1007.5 |
| 20260505233813 | 54 | 276 | 0.0 | 0.0 | 0.00 | 0.07 | 0.07 | 76 | 1007.5 |
| 20260505233311 | 55 | 276 | 0.0 | 0.0 | 0.00 | 0.07 | 0.07 | 72 | 1007.2 |
| 20260505232808 | 56 | 274 | 0.9 | 1.7 | 0.00 | 0.07 | 0.07 | 68 | 1006.8 |
| 20260505232306 | 58 | 289 | 0.9 | 1.7 | 0.00 | 0.07 | 0.07 | 65 | 1006.7 |
| 20260505231802 | 58 | 289 | 1.7 | 1.7 | 0.00 | 0.07 | 0.07 | 65 | 1006.2 |